This demonstration page uses our WeatherBlox Daily Observations layout. Learn more.

Left ArrowRight Arrow

34.74481, -87.66753

Hourly Observations for July 7, 2022

Temp ( °F °C ) Dew Point ( °F °C ) Humidity (%) Winds ( mph kmh ) Pressure ( in mb ) Visibility ( mi km ) Precip ( " mm )
12:53 am 00:53 Clear 76 24.4 73 22.8 91 91 NNE 3 6 29.96 1015 10 16 0.00 0.00
1:53 am 01:53 Clear 75 23.9 73 22.8 94 94 Calm 29.95 1014 8 13 0.00 0.00
2:53 am 02:53 Clear 75 23.9 73 22.8 94 94 Calm 29.95 1014 9 14 0.00 0.00
3:53 am 03:53 Mostly Cloudy 75 23.9 73 22.8 94 94 Calm 29.96 1014 9 14 0.00 0.00
4:53 am 04:53 Clear 75 23.9 73 22.8 94 94 Calm 29.96 1015 9 14 0.00 0.00
5:53 am 05:53 Mostly Cloudy 75 23.9 73 22.8 94 94 Calm 29.98 1015 8 13 0.00 0.00
6:53 am 06:53 Sunny 77 25 75 23.9 94 94 Calm 29.99 1016 8 13 0.00 0.00
7:53 am 07:53 Sunny 82 27.8 76 24.4 82 82 WSW 6 9 30.00 1016 10 16 0.00 0.00
8:53 am 08:53 Mostly Cloudy 85 29.4 77 25 77 77 WNW 6 9 30.01 1016 10 16 0.00 0.00
9:53 am 09:53 Sunny 88 31.1 78 25.6 73 73 VRB 5 7 30.01 1016 10 16 0.00 0.00
10:53 am 10:53 Mostly Cloudy 89 31.7 78 25.6 70 70 NW 5 7 30.02 1017 10 16 0.00 0.00
11:53 am 11:53 Partly Cloudy 93 33.9 77 25 60 60 VRB 5 7 30.00 1016 10 16 0.00 0.00
12:53 pm 12:53 Sunny with Nearby Thunderstorms 95 35 76 24.4 54 54 WNW 5 7 29.98 1015 10 16 0.00 0.00
1:53 pm 13:53 Partly Cloudy with Nearby Thunderstorms 93 33.9 76 24.4 58 58 SSW 8 13 29.96 1015 10 16 0.00 0.00
2:03 pm 14:03 Sunny with Thunderstorms 95 35 77 25 56 56 S 9 15 29.94 1014 10 16 0.00 0.00
2:18 pm 14:18 Partly Cloudy with Nearby Thunderstorms 95 35 75 23.9 53 53 W 6 9 29.94 1014 10 16 0.00 0.00
2:53 pm 14:53 Partly Cloudy with Nearby Thunderstorms 90 32.2 74 23.3 59 59 NE 6 9 29.94 1014 10 16 0.00 0.00
3:41 pm 15:41 Sunny 91 32.8 77 25 64 64 NNE 6 9 29.92 1013 10 16 0.00 0.00
3:53 pm 15:53 Sunny with Nearby Thunderstorms 92 33.3 76 24.4 60 60 NNE 5 7 29.93 1014 10 16 0.00 0.00
4:12 pm 16:12 Partly Cloudy 90 32.2 76 24.4 63 63 NE 6 9 29.91 1013 10 16 0.00 0.00
4:53 pm 16:53 Sunny 93 33.9 75 23.9 56 56 VRB 3 6 29.93 1014 10 16 0.00 0.00
5:53 pm 17:53 Mostly Sunny 95 35 75 23.9 53 53 W 6 9 29.93 1013 10 16 0.00 0.00
6:53 pm 18:53 Sunny 93 33.9 76 24.4 58 58 N 3 6 29.94 1014 10 16 0.00 0.00
7:53 pm 19:53 Mostly Sunny 90 32.2 77 25 66 66 SE 3 6 29.94 1014 10 16 0.00 0.00
8:53 pm 20:53 Clear 86 30 77 25 75 75 S 6 9 29.95 1014 10 16 0.00 0.00
9:53 pm 21:53 Clear 84 28.9 77 25 80 80 ESE 3 6 29.97 1015 10 16 0.00 0.00
10:53 pm 22:53 Clear 83 28.3 77 25 82 82 Calm 29.98 1015 10 16 0.00 0.00
11:53 pm 23:53 Clear 81 27.2 76 24.4 85 85 ESE 3 6 29.99 1016 10 16 0.00 0.00

Powered by AerisWeather